Tucson, AZ

9:23 PM MST on August 24, 2016 (GMT -0700)
Tucson International

Weather History for KTUS - April, 2012

Change the Weather History Date:

Friday, April 13, 2012

  Actual Average Record
Temperature  
Mean Temperature 62 °F 66 °F  
Max Temperature 78 °F 81 °F 96 °F (1963)
Min Temperature 45 °F 51 °F 33 °F (1912)
Degree Days  
Heating Degree Days 3 2  
Month to date heating degree days 23 37  
Since 1 July heating degree days 1420 1483  
Cooling Degree Days 0 3  
Month to date cooling degree days 42 33  
Year to date cooling degree days 79 66  
Growing Degree Days 12 (Base 50)    
Moisture  
Dew Point 17 °F    
Average Humidity 24    
Maximum Humidity 42    
Minimum Humidity 6    
Precipitation  
Precipitation 0.00 in 0.01 in 0.60 in (1905)
Month to date precipitation 0.00 0.19  
Year to date precipitation 0.56 2.72  
Snow  
Snow 0.00 in - - ()
Month to date snowfall 0.0  
Snow Depth 0.00 in    
Sea Level Pressure  
Sea Level Pressure 29.79 in    
Wind  
Wind Speed 8 mph (SSW)    
Max Wind Speed 25 mph    
Max Gust Speed 32 mph    
Visibility 10 miles    
Events      
T = Trace of Precipitation, MM = Missing Value Source: NWS Daily Summary

Daily Weather History Graph

Daily Weather History Graph

Search for Another Location

Airport or City:

Trip Planner

Search our weather history database for the weather conditions in past years. The results will help you decide how hot, cold, wet, or windy it might be!

Date:

Astronomy

Apr. 13, 2012 Rise Set
Actual Time 5:56 AM MST 6:52 PM MST
Civil Twilight 5:31 AM MST 7:17 PM MST
Nautical Twilight 5:01 AM MST 7:47 PM MST
Astronomical Twilight 4:31 AM MST 8:17 PM MST
Moon 1:17 AM MST (4/13) 12:09 PM MST (4/13)
Length of Visible Light 13h 45m
Length of Day
12h 55m
Waning Gibbous, 46% of the Moon is Illuminated
Apr 13
Waning Gibbous
Apr 21
New
Apr 29
First Quarter
May 5
Full
May 12
Last Quarter

Hourly Weather History & Observations

Time (MST) Temp. Windchill Dew Point Humidity Pressure Visibility Wind Dir Wind Speed Gust Speed Precip Events Conditions
12:53 AM 55.0 °F - 25.0 °F 31% 29.93 in 10.0 mi SW 3.5 mph - N/A   Clear
1:53 AM 53.1 °F - 24.1 °F 32% 29.91 in 10.0 mi South 4.6 mph - N/A   Clear
2:53 AM 51.1 °F - 24.1 °F 35% 29.90 in 10.0 mi SSE 4.6 mph - N/A   Clear
3:53 AM 48.9 °F - 24.1 °F 38% 29.89 in 10.0 mi SSE 6.9 mph - N/A   Clear
4:53 AM 48.9 °F - 24.1 °F 38% 29.87 in 10.0 mi SE 4.6 mph - N/A   Clear
5:53 AM 46.0 °F 42.5 °F 24.1 °F 42% 29.88 in 10.0 mi SSE 6.9 mph - N/A   Clear
6:53 AM 48.0 °F - 24.1 °F 39% 29.89 in 10.0 mi SSE 9.2 mph - N/A   Clear
7:53 AM 55.0 °F - 26.1 °F 33% 29.88 in 10.0 mi SSE 5.8 mph - N/A   Clear
8:53 AM 62.1 °F - 25.0 °F 24% 29.86 in 10.0 mi SE 5.8 mph - N/A   Clear
9:53 AM 66.0 °F - 25.0 °F 21% 29.84 in 10.0 mi Variable 3.5 mph - N/A   Clear
10:53 AM 70.0 °F - 26.1 °F 19% 29.82 in 10.0 mi Calm Calm - N/A   Clear
11:53 AM 73.0 °F - 24.1 °F 16% 29.80 in 10.0 mi Variable 5.8 mph - N/A   Clear
12:53 PM 75.0 °F - 17.1 °F 11% 29.77 in 10.0 mi NW 8.1 mph - N/A   Clear
1:53 PM 75.2 °F - 15.8 °F 11% 29.84 in 10.0 mi NW 10.4 mph - N/A   Clear
2:53 PM 77.0 °F - 10.9 °F 8% 29.72 in 10.0 mi West 12.7 mph 20.7 mph N/A   Clear
3:53 PM 77.0 °F - 7.0 °F 7% 29.70 in 10.0 mi WNW 8.1 mph 21.9 mph N/A   Clear
4:53 PM 77.0 °F - 6.1 °F 7% 29.69 in 10.0 mi WSW 15.0 mph 25.3 mph N/A   Clear
5:53 PM 73.9 °F - 8.1 °F 8% 29.68 in 10.0 mi WSW 11.5 mph - N/A   Clear
6:53 PM 71.1 °F - 10.0 °F 9% 29.68 in 10.0 mi WSW 16.1 mph 20.7 mph N/A   Clear
7:53 PM 68.0 °F - 10.9 °F 11% 29.69 in 10.0 mi WSW 9.2 mph - N/A   Clear
8:53 PM 66.9 °F - 19.9 °F 17% 29.69 in 10.0 mi SW 15.0 mph 24.2 mph N/A   Clear
9:53 PM 64.9 °F - 1.0 °F 8% 29.69 in 10.0 mi SSW 17.3 mph 27.6 mph N/A   Clear
10:53 PM 62.1 °F - 5.0 °F 10% 29.70 in 10.0 mi SW 8.1 mph - N/A   Clear
11:53 PM 62.1 °F - 8.1 °F 12% 29.69 in 10.0 mi SSW 9.2 mph - N/A   Mostly Cloudy